Weather History for Cairns, QU

Change the Weather History Date:

Monday, September 23, 2013

  Actual Average Record
Temperature  
Mean Temperature 74 °F -  
Max Temperature 84 °F 84 °F 87 °F (2010)
Min Temperature 65 °F 68 °F 55 °F (1996)
Cooling Degree Days 10    
Growing Degree Days 24 (Base 50)    
Moisture  
Dew Point 66 °F    
Average Humidity 74    
Maximum Humidity 94    
Minimum Humidity 48    
Precipitation  
Precipitation 0.00 in 0.05 in - ()
Sea Level Pressure  
Sea Level Pressure 29.94 in    
Wind  
Wind Speed 5 mph ()    
Max Wind Speed 13 mph    
Max Gust Speed -    
Visibility 7.1 miles    
Events      
Averages and records for this station are not official NWS values.
T = Trace of Precipitation, MM = Missing Value Source: Averaged Metar Reports

Daily Weather History Graph

Daily Weather History Graph

Search for Another Location

Airport:

Trip Planner

Search our weather history database for the weather conditions in past years. The results will help you decide how hot, cold, wet, or windy it might be!

Date:

Astronomy

Sep. 23, 2013 Rise Set
Actual Time 6:06 AM AEST 6:13 PM AEST
Civil Twilight 5:44 AM AEST 6:34 PM AEST
Nautical Twilight 5:19 AM AEST 6:59 PM AEST
Astronomical Twilight 4:54 AM AEST 7:25 PM AEST
Moon 9:38 PM AEST (9/23) 8:31 AM AEST (9/23)
Length of Visible Light 12h 50m
Length of Day
12h 06m
Waning Gibbous, 86% of the Moon is Illuminated
Sep 23
Waning Gibbous
Sep 27
Last Quarter
Oct 5
New
Oct 12
First Quarter
Oct 19
Full

Hourly Weather History & Observations

Time (AEST) Temp. Heat Index Dew Point Humidity Pressure Visibility Wind Dir Wind Speed Gust Speed Precip Events Conditions
12:00 AM 68 °F - 66 °F 93% 29.93 in - Calm Calm - -  
12:00 AM 68.0 °F - 66.2 °F 94% 29.92 in 6.2 mi Calm Calm - N/A   Partly Cloudy
12:30 AM 68.0 °F - 66.2 °F 94% 29.92 in 6.2 mi SSW 1.2 mph - N/A   Partly Cloudy
1:00 AM 69 °F - 66 °F 87% 29.92 in - SSE 8.1 mph - -  
1:00 AM 69.8 °F - 66.2 °F 88% 29.92 in 6.2 mi SSE 8.1 mph - N/A   Partly Cloudy
1:30 AM 69.8 °F - 66.2 °F 88% 29.89 in 6.2 mi South 3.5 mph - N/A   Partly Cloudy
2:00 AM 69.8 °F - 66.2 °F 88% 29.89 in 6.2 mi SSE 11.5 mph - N/A   Partly Cloudy
2:30 AM 69.8 °F - 64.4 °F 83% 29.89 in 6.2 mi SSE 8.1 mph - N/A   Partly Cloudy
3:00 AM 68 °F - 65 °F 87% 29.91 in - WSW 2.3 mph - -  
3:00 AM 68.0 °F - 64.4 °F 88% 29.89 in 6.2 mi WSW 2.3 mph - N/A   Partly Cloudy
3:30 AM 66.2 °F - 64.4 °F 94% 29.89 in 6.2 mi NW 2.3 mph - N/A   Partly Cloudy
4:00 AM 66 °F - 64 °F 91% 29.91 in - Calm Calm - -  
4:00 AM 66.2 °F - 64.4 °F 94% 29.89 in 6.2 mi Calm Calm - N/A   Partly Cloudy
4:30 AM 66.2 °F - 64.4 °F 94% 29.92 in 6.2 mi South 4.6 mph - N/A   Partly Cloudy
5:00 AM 66.2 °F - 64.4 °F 94% 29.92 in 6.2 mi West 3.5 mph - N/A   Partly Cloudy
5:30 AM 66.2 °F - 64.4 °F 94% 29.92 in 6.2 mi SW 3.5 mph - N/A   Partly Cloudy
6:00 AM 66 °F - 64 °F 90% 29.94 in 16 mi WNW 1.2 mph - -   Partly Cloudy
6:00 AM 66.2 °F - 64.4 °F 94% 29.92 in 6.2 mi WNW 1.2 mph - N/A   Partly Cloudy
6:30 AM 66.2 °F - 64.4 °F 94% 29.95 in 6.2 mi WSW 2.3 mph - N/A   Partly Cloudy
7:00 AM 68 °F - 65 °F 87% 29.96 in - WNW 3.5 mph - -  
7:00 AM 68.0 °F - 64.4 °F 88% 29.95 in 6.2 mi WNW 3.5 mph - N/A   Partly Cloudy
7:30 AM 71.6 °F - 66.2 °F 83% 29.95 in 6.2 mi NNW 4.6 mph - N/A   Partly Cloudy
8:00 AM 75.2 °F - 64.4 °F 69% 29.98 in 6.2 mi SE 8.1 mph - N/A   Partly Cloudy
8:30 AM 78.8 °F - 66.2 °F 65% 29.98 in 6.2 mi West 2.3 mph - N/A   Partly Cloudy
9:00 AM 80 °F - 66 °F 54% 29.99 in 19 mi SE 6.9 mph - -   Partly Cloudy
9:00 AM 80.6 °F 82.7 °F 66.2 °F 61% 29.98 in 6.2 mi SE 6.9 mph - N/A   Partly Cloudy
9:30 AM 80.6 °F 82.7 °F 66.2 °F 61% 29.98 in 6.2 mi SSE 6.9 mph - N/A   Partly Cloudy
10:00 AM 82 °F - 65 °F 48% 30.00 in - SE 8.1 mph - -  
10:00 AM 82.4 °F 84.6 °F 66.2 °F 58% 29.98 in 6.2 mi SE 8.1 mph - N/A   Partly Cloudy
10:30 AM 82.4 °F 83.9 °F 64.4 °F 54% 29.98 in 6.2 mi East 5.8 mph - N/A   Partly Cloudy
11:00 AM 84.2 °F 86.6 °F 66.2 °F 55% 29.98 in 6.2 mi ENE 11.5 mph - N/A   Partly Cloudy
11:30 AM 82.4 °F 84.6 °F 66.2 °F 58% 29.98 in 6.2 mi ENE 11.5 mph - N/A   Partly Cloudy
12:00 PM 82 °F - 68 °F 53% 29.97 in 19 mi ENE 11.5 mph - -   Partly Cloudy
12:00 PM 82.4 °F 85.4 °F 68.0 °F 62% 29.95 in 6.2 mi ENE 11.5 mph - N/A   Partly Cloudy
12:30 PM 82.4 °F 84.6 °F 66.2 °F 58% 29.95 in 6.2 mi NE 11.5 mph - N/A   Partly Cloudy
1:00 PM 83 °F - 68 °F 52% 29.95 in - NE 11.5 mph - -  
1:00 PM 82.4 °F 85.4 °F 68.0 °F 62% 29.95 in 6.2 mi NE 11.5 mph - N/A   Partly Cloudy
1:30 PM 82.4 °F 85.4 °F 68.0 °F 62% 29.92 in 6.2 mi ENE 12.7 mph - N/A   Partly Cloudy
2:00 PM 82.4 °F 85.4 °F 68.0 °F 62% 29.92 in 6.2 mi NNE 12.7 mph - N/A   Partly Cloudy
2:30 PM 82.4 °F 84.6 °F 66.2 °F 58% 29.89 in 6.2 mi NE 10.4 mph - N/A   Partly Cloudy
3:00 PM 82 °F - 67 °F 53% 29.90 in 19 mi NE 11.5 mph - -   Smoke
3:00 PM 82.4 °F 85.4 °F 68.0 °F 62% 29.89 in 6.2 mi NE 11.5 mph - N/A   Partly Cloudy
3:30 PM 82.4 °F 85.4 °F 68.0 °F 62% 29.89 in 6.2 mi NE 10.4 mph - N/A   Partly Cloudy
4:00 PM 82 °F - 67 °F 50% 29.91 in - NE 10.4 mph - -  
4:00 PM 82.4 °F 84.6 °F 66.2 °F 58% 29.89 in 6.2 mi NE 10.4 mph - N/A   Partly Cloudy
4:30 PM 80.6 °F 83.2 °F 68.0 °F 65% 29.89 in 6.2 mi NE 11.5 mph - N/A   Partly Cloudy
5:00 PM 80.6 °F 83.2 °F 68.0 °F 65% 29.89 in 6.2 mi ENE 11.5 mph - N/A   Partly Cloudy
5:30 PM 78.8 °F - 68.0 °F 69% 29.89 in 6.2 mi ENE 9.2 mph - N/A   Partly Cloudy
6:00 PM 78 °F - 68 °F 63% 29.92 in - ENE 9.2 mph - -  
6:00 PM 77.0 °F - 68.0 °F 74% 29.92 in 6.2 mi ENE 9.2 mph - N/A   Partly Cloudy
6:30 PM 77.0 °F - 68.0 °F 74% 29.92 in 6.2 mi East 9.2 mph - N/A   Partly Cloudy
7:00 PM 77 °F - 67 °F 65% 29.94 in - ESE 6.9 mph - -  
7:00 PM 77.0 °F - 68.0 °F 74% 29.92 in 6.2 mi ESE 6.9 mph - N/A   Partly Cloudy
7:30 PM 75.2 °F - 68.0 °F 78% 29.95 in 6.2 mi SE 8.1 mph - N/A   Partly Cloudy
8:00 PM 75.2 °F - 66.2 °F 73% 29.95 in 6.2 mi SSE 5.8 mph - N/A   Partly Cloudy
8:30 PM 73.4 °F - 66.2 °F 78% 29.95 in 6.2 mi SSE 4.6 mph - N/A   Partly Cloudy
9:00 PM 73 °F - 67 °F 77% 29.96 in - South 4.6 mph - -  
9:00 PM 73.4 °F - 68.0 °F 83% 29.95 in 6.2 mi South 4.6 mph - N/A   Partly Cloudy
9:30 PM 73.4 °F - 68.0 °F 83% 29.98 in 6.2 mi SSE 4.6 mph - N/A   Partly Cloudy
10:00 PM 72 °F - 67 °F 80% 29.98 in - SSE 5.8 mph - -  
10:00 PM 71.6 °F - 68.0 °F 88% 29.95 in 6.2 mi SSE 5.8 mph - N/A   Partly Cloudy
10:30 PM 73.4 °F - 66.2 °F 78% 29.98 in 6.2 mi South 5.8 mph - N/A   Partly Cloudy
11:00 PM 71.6 °F - 68.0 °F 88% 29.98 in 6.2 mi Calm Calm - N/A   Partly Cloudy
11:30 PM 69.8 °F - 66.2 °F 88% 29.95 in 6.2 mi West 1.2 mph - N/A   Partly Cloudy